カタログに戻る

STARLINK-5844

運用中通信VLEO
NORAD 57068·PAYLOAD·🇺🇸 United States

打ち上げ Jun 22, 2023 から Vandenberg Space Force Base

Loading…

次のパス (今後24時間)

TLE

最新Source: CelesTrak SupGP

元期: Sep 15, 2026, 02:42 UTC

1 57068C 23088W   26258.11298611  .00054528  00000+0  19747-2 0  2580
2 57068  43.0008 124.4755 0001200 268.3091 329.3138 15.27557214    12

AllMySatでSTARLINK-5844をリアルタイム追跡

Download on the App Store